FENGYUN 1C DEB, 31155

Orbit data source: Space-Track

FENGYUN 1C DEB, 31155 is space debris in SSO originally from a launch on Mon, 10 May 1999 UTC launched from the Taiyaun Space Center, China (TSC). Fengyun 1C debris stems from the Chinese weather satellite Fengyun-1C, which was intentionally destroyed by a Chinese anti-satellite missile in 2007. This event dramatically increased the amount of space debris, with thousands of trackable fragments posing hazards to satellites and human spaceflight. The Fengyun 1C debris cloud has become a focal point in discussions about space sustainability and the need for international regulations to prevent the creation of new debris.

Loading next visibility...
Identifier
31155, 1999-025BHH
Orbit
SSO
Country
Flag of CNCN / PRC
Related business
Manufacturer
Unknown
Mission
Spacecraft
Bus & Motor
Unknown
Mass
Unknown
Launch date (UTC)
1999-05-10 (27 years ago)
Launch vehicle
Unknown
Launch site
Taiyaun Space Center, China (TSC)
Object type
Payload
Rocket body
Debris
Shape & HBR
Unknown shape, 0.1 m
Radar Cross Section
Small (<0.1 m²)

Expand to show TLE details & history
Last TLE update: 11 hours ago

TLE from 11 hours ago
0 FENGYUN 1C DEB
1 31155U 99025BHH 26178.16817409  .00001829  00000-0  10383-2 0  9997
2 31155  99.0281 252.4930 0090494 171.8805 188.3854 14.09183313983535
Epoch: 2026-06-27T04:02Z
TLE epoch observation values (Epoch: 2026-06-27T04:02:10.241Z)
Latitude
-0°
Longitude
-83.33587°
Altitude
929.903 km
Speed
7.354 km/s
True Right ascension
16h 49m 58s
True Declination
0° 00' 00"
Sunlit
Object was in full shadow at epoch
Visualization orbit readout
Latitude
Unknown
Longitude
Unknown
Altitude
Unknown
Speed
Unknown
Apparent Right ascension
Unknown
Apparent Declination
Unknown
Sunlit
N/A
Visualization observer readout
Local Sidereal Time
01:59:58
Azimuth
Unknown
Elevation
Unknown
Doppler factor
Unknown
Orbital elements
Apogee altitude
924.851 km
Perigee altitude
793.861 km
Semi-major axis
7,237.493 km
Eccentricity
0.00905
Inclination
99.0281°
RAAN
252.493°
Arg. of periapsis
171.8805°
True anomaly
188.23585°
Mean anomaly
188.3854°
Eccentric anomaly
188.31046°
Mean motion
3.52501 °/min
Orbital period
102.13 mins
BSTAR
0.0010383
Loading maneuver chart data...
Computing Atmospheric mass density...

Documentation

Showing up to 5 results
|